Location: Putah Creek Observatory
(38.7021°N, 122.3865°W)
Time: 11:58:02
(UTC-07:00)

Lacrosse 5 rocket - Pass Details

Date: 27 May 2018
Orbit: 458 x 642 km, 57.0° (Epoch: 10 October)

Event Time Altitude Azimuth Distance (km) Brightness Sun altitude
Rises 23:41:38 0° 296° (WNW) 2,789 5.6 -26.6°
Reaches altitude 10° 23:45:16 10° 265° (W) 1,834 4.1 -26.9°
Enters shadow 23:45:33 11° 261° (W) 1,791 4.0 -26.9°
